Weather History for KCWF - May, 2014

Change the Weather History Date:

Thursday, May 1, 2014

  Actual Average Record
Temperature  
Mean Temperature 60 °F -  
Max Temperature 73 °F 82 °F 87 °F (2002)
Min Temperature 48 °F 66 °F 48 °F (2014)
Degree Days  
Heating Degree Days 4    
Growing Degree Days 10 (Base 50)    
Moisture  
Dew Point 44 °F    
Average Humidity 57    
Maximum Humidity 87    
Minimum Humidity 25    
Precipitation  
Precipitation 0.00 in - - ()
Sea Level Pressure  
Sea Level Pressure 30.10 in    
Wind  
Wind Speed 4 mph (North)    
Max Wind Speed 12 mph    
Max Gust Speed 21 mph    
Visibility 10 miles    
Events      
Averages and records for this station are not official NWS values.
T = Trace of Precipitation, MM = Missing Value Source: NWS Daily Summary

Daily Weather History Graph

Daily Weather History Graph

Search for Another Location

Airport or City:

Trip Planner

Search our weather history database for the weather conditions in past years. The results will help you decide how hot, cold, wet, or windy it might be!

Date:

Astronomy

May. 01, 2014 Rise Set
Actual Time 6:29 AM CDT 7:50 PM CDT
Civil Twilight 6:03 AM CDT 8:15 PM CDT
Nautical Twilight 5:33 AM CDT 8:46 PM CDT
Astronomical Twilight 5:02 AM CDT 9:17 PM CDT
Moon 8:21 AM CDT (5/1) 10:19 PM CDT (5/1)
Length of Visible Light 14h 11m
Length of Day
13h 20m
Waxing Crescent, 7% of the Moon is Illuminated
May 1
Waxing Crescent
May 6
First Quarter
May 14
Full
May 21
Last Quarter
May 28
New

Hourly Weather History & Observations

Time (CDT) Temp. Dew Point Humidity Pressure Visibility Wind Dir Wind Speed Gust Speed Precip Events Conditions
12:15 AM 57.0 °F 45.3 °F 65% 30.12 in 10.0 mi North 6.9 mph - N/A   Clear
12:35 AM 57.0 °F 44.8 °F 64% 30.14 in 10.0 mi NNE 5.8 mph - N/A   Clear
1:15 AM 56.3 °F 44.8 °F 65% 30.15 in 10.0 mi NE 3.5 mph - N/A   Clear
1:35 AM 54.5 °F 45.0 °F 70% 30.15 in 10.0 mi NE 3.5 mph - N/A   Clear
1:55 AM 54.5 °F 44.8 °F 70% 30.15 in 10.0 mi NNE 4.6 mph - N/A   Clear
2:15 AM 54.5 °F 45.0 °F 70% 30.14 in 10.0 mi North 3.5 mph - N/A   Clear
2:35 AM 54.0 °F 45.0 °F 72% 30.14 in 10.0 mi NNE 4.6 mph - N/A   Clear
2:55 AM 52.9 °F 45.1 °F 75% 30.14 in 10.0 mi North 3.5 mph - N/A   Clear
3:15 AM 52.3 °F 45.1 °F 76% 30.14 in 10.0 mi Calm Calm - N/A   Clear
3:35 AM 49.1 °F 44.4 °F 84% 30.14 in 10.0 mi Calm Calm - N/A   Clear
4:15 AM 51.3 °F 45.1 °F 80% 30.13 in 10.0 mi North 3.5 mph - N/A   Clear
6:00 AM 51.8 °F 46.4 °F 82% 30.14 in 10.0 mi Calm Calm - N/A   Scattered Clouds
6:50 AM 48.2 °F 44.6 °F 87% 30.15 in 10.0 mi Calm Calm - N/A   Scattered Clouds
8:52 AM 60.8 °F 46.4 °F 59% 30.16 in 10.0 mi Calm Calm - N/A   Clear
9:50 AM 62.6 °F 44.6 °F 52% 30.17 in 10.0 mi Variable 3.5 mph - N/A   Clear
10:49 AM 66.2 °F 35.6 °F 32% 30.17 in 10.0 mi NNE 11.5 mph - N/A   Clear
12:50 PM 69.8 °F 35.6 °F 28% 30.11 in 10.0 mi NNE 6.9 mph 20.7 mph N/A   Clear
1:47 PM 73.4 °F 35.6 °F 25% 30.08 in 10.0 mi North 11.5 mph 17.3 mph N/A   Scattered Clouds
2:45 PM 71.6 °F 33.8 °F 25% 30.06 in 10.0 mi NNE 5.8 mph - N/A   Scattered Clouds
3:45 PM 71.6 °F 33.8 °F 25% 30.05 in 10.0 mi North 3.5 mph - N/A   Scattered Clouds
4:50 PM 69.8 °F 37.4 °F 31% 30.05 in 10.0 mi NNW 4.6 mph - N/A   Scattered Clouds
5:45 PM 69.8 °F 37.4 °F 31% 30.04 in 10.0 mi NNW 6.9 mph - N/A   Scattered Clouds
6:45 PM 68.0 °F 39.2 °F 35% 30.04 in 10.0 mi NNW 6.9 mph - N/A   Scattered Clouds
7:45 PM 66.2 °F 44.6 °F 46% 30.04 in 10.0 mi WNW 3.5 mph - N/A   Scattered Clouds
8:45 PM 62.6 °F 48.2 °F 59% 30.04 in 10.0 mi Calm Calm - N/A   Scattered Clouds
9:15 PM 63.7 °F 45.5 °F 52% 30.06 in 10.0 mi Calm Calm - N/A   Clear
9:35 PM 62.6 °F 46.9 °F 57% 30.06 in 10.0 mi Calm Calm - N/A   Clear
9:45 PM 62.6 °F 46.4 °F 55% 30.06 in 10.0 mi Calm Calm - N/A   Scattered Clouds
9:55 PM 60.3 °F 51.6 °F 73% 30.06 in 10.0 mi Calm Calm - N/A   Clear
10:15 PM 62.2 °F 48.7 °F 61% 30.06 in 10.0 mi Calm Calm - N/A   Clear
10:35 PM 63.5 °F 45.7 °F 52% 30.06 in 10.0 mi Calm Calm - N/A   Clear
10:55 PM 61.9 °F 47.5 °F 59% 30.06 in 10.0 mi Calm Calm - N/A   Clear
11:15 PM 61.0 °F 47.1 °F 60% 30.06 in 10.0 mi Calm Calm - N/A   Clear
11:35 PM 61.7 °F 46.6 °F 58% 30.06 in 10.0 mi NW 3.5 mph - N/A   Scattered Clouds
11:55 PM 62.8 °F 45.9 °F 54% 30.06 in 10.0 mi Calm Calm - N/A   Clear